| time (UTC) | temp C | wind direction | speed KPH | gust KPH | rain 1hr cm | rain 24hr cm | rain mn cm | humidity % | barometer mb |
| 20260505153030 | 16 | 206 | 4.8 | 17.7 | 0.00 | 0.00 | 0.00 | 61 | 1023.1 |
| 20260505151533 | 16 | 130 | 4.8 | 19.3 | 0.00 | 0.00 | 0.00 | 61 | 1023.4 |
| 20260505124542 | 16 | 167 | 8.0 | 20.9 | 0.00 | 0.00 | 0.00 | 53 | 1023.1 |
| 20260505123037 | 16 | 146 | 6.4 | 14.5 | 0.00 | 0.00 | 0.00 | 52 | 1023.1 |
| 20260505121559 | 16 | 222 | 8.0 | 17.7 | 0.00 | 0.00 | 0.00 | 51 | 1023.1 |
| 20260505120029 | 16 | 135 | 8.0 | 19.3 | 0.00 | 0.00 | 0.00 | 49 | 1023.0 |
| 20260505114534 | 16 | 141 | 8.0 | 25.7 | 0.00 | 0.00 | 0.00 | 47 | 1023.0 |
| 20260505113032 | 16 | 138 | 6.4 | 19.3 | 0.00 | 0.00 | 0.00 | 47 | 1022.8 |
| 20260505111535 | 17 | 161 | 9.7 | 24.1 | 0.00 | 0.00 | 0.00 | 44 | 1022.6 |
| 20260505101535 | 17 | 194 | 6.4 | 20.9 | 0.00 | 0.00 | 0.00 | 38 | 1022.1 |
| 20260505100038 | 17 | 148 | 6.4 | 24.1 | 0.00 | 0.00 | 0.00 | 40 | 1022.0 |
| 20260505094528 | 18 | 200 | 4.8 | 25.7 | 0.00 | 0.00 | 0.00 | 42 | 1021.7 |
| 20260505093031 | 18 | 147 | 9.7 | 24.1 | 0.00 | 0.00 | 0.00 | 41 | 1021.2 |
| 20260505091536 | 19 | 134 | 11.3 | 27.4 | 0.00 | 0.00 | 0.00 | 39 | 1021.2 |
| 20260505090032 | 20 | 186 | 11.3 | 27.4 | 0.00 | 0.00 | 0.00 | 40 | 1020.9 |
| 20260505084528 | 20 | 208 | 9.7 | 24.1 | 0.00 | 0.00 | 0.00 | 38 | 1020.7 |
| 20260505083046 | 21 | 209 | 12.9 | 29.0 | 0.00 | 0.00 | 0.00 | 36 | 1020.6 |
| 20260505081532 | 21 | 125 | 8.0 | 29.0 | 0.00 | 0.00 | 0.00 | 34 | 1020.4 |
| 20260505080044 | 22 | 251 | 11.3 | 22.5 | 0.00 | 0.00 | 0.00 | 33 | 1020.3 |
| 20260505074529 | 22 | 137 | 6.4 | 22.5 | 0.00 | 0.00 | 0.00 | 24 | 1020.3 |
| 20260505073038 | 22 | 149 | 8.0 | 22.5 | 0.00 | 0.00 | 0.00 | 21 | 1020.1 |
| 20260505071538 | 22 | 169 | 11.3 | 20.9 | 0.00 | 0.00 | 0.00 | 21 | 1019.9 |
| 20260505070030 | 23 | 130 | 11.3 | 20.9 | 0.00 | 0.00 | 0.00 | 20 | 1019.8 |
| 20260505064531 | 23 | 130 | 6.4 | 20.9 | 0.00 | 0.00 | 0.00 | 20 | 1019.7 |
| 20260505063042 | 23 | 63 | 4.8 | 14.5 | 0.00 | 0.00 | 0.00 | 21 | 1019.5 |
| 20260505061534 | 23 | 125 | 4.8 | 14.5 | 0.00 | 0.00 | 0.00 | 22 | 1019.6 |
| 20260505060029 | 22 | 136 | 6.4 | 16.1 | 0.00 | 0.00 | 0.00 | 23 | 1019.6 |
| 20260505054541 | 22 | 61 | 6.4 | 16.1 | 0.00 | 0.00 | 0.00 | 23 | 1019.6 |
| 20260505053028 | 22 | 138 | 6.4 | 12.9 | 0.00 | 0.00 | 0.00 | 22 | 1019.8 |
| 20260505051538 | 22 | 100 | 8.0 | 12.9 | 0.00 | 0.00 | 0.00 | 23 | 1019.7 |
| 20260505041545 | 21 | 316 | 6.4 | 16.1 | 0.00 | 0.00 | 0.00 | 21 | 1020.3 |
| 20260505040030 | 21 | 34 | 11.3 | 20.9 | 0.00 | 0.00 | 0.00 | 22 | 1020.3 |
| 20260505034533 | 21 | 20 | 6.4 | 19.3 | 0.00 | 0.00 | 0.00 | 21 | 1020.3 |
| 20260505033028 | 21 | 36 | 6.4 | 22.5 | 0.00 | 0.00 | 0.00 | 25 | 1020.3 |
| 20260505031534 | 20 | 34 | 11.3 | 20.9 | 0.00 | 0.00 | 0.00 | 24 | 1020.3 |
| 20260505030038 | 20 | 23 | 12.9 | 27.4 | 0.00 | 0.00 | 0.00 | 24 | 1020.5 |
| 20260505024531 | 20 | 34 | 9.7 | 20.9 | 0.00 | 0.00 | 0.00 | 24 | 1020.5 |
| 20260505023031 | 20 | 20 | 12.9 | 27.4 | 0.00 | 0.00 | 0.00 | 24 | 1020.6 |
| 20260505021530 | 20 | 328 | 12.9 | 20.9 | 0.00 | 0.00 | 0.00 | 23 | 1020.7 |
| 20260505020038 | 20 | 283 | 11.3 | 22.5 | 0.00 | 0.00 | 0.00 | 24 | 1020.6 |
| 20260505014528 | 19 | 17 | 12.9 | 24.1 | 0.00 | 0.00 | 0.00 | 25 | 1020.8 |
| 20260505013032 | 18 | 329 | 12.9 | 27.4 | 0.00 | 0.00 | 0.00 | 27 | 1020.8 |
| 20260505011534 | 18 | 313 | 14.5 | 25.7 | 0.00 | 0.00 | 0.00 | 29 | 1020.7 |
| 20260505010044 | 18 | 9 | 14.5 | 25.7 | 0.00 | 0.00 | 0.00 | 26 | 1020.7 |
| 20260505004528 | 17 | 335 | 16.1 | 32.2 | 0.00 | 0.00 | 0.00 | 28 | 1020.7 |
| 20260505003030 | 17 | 328 | 14.5 | 27.4 | 0.00 | 0.00 | 0.00 | 30 | 1020.6 |
| 20260505001535 | 17 | 287 | 11.3 | 25.7 | 0.00 | 0.00 | 0.00 | 29 | 1020.3 |
| 20260505000039 | 17 | 249 | 9.7 | 17.7 | 0.00 | 0.00 | 0.00 | 32 | 1020.5 |
| 20260504234533 | 16 | 285 | 11.3 | 24.1 | 0.00 | 0.00 | 0.00 | 34 | 1020.4 |
| 20260504233031 | 16 | 243 | 16.1 | 29.0 | 0.00 | 0.00 | 0.00 | 34 | 1020.6 |
| 20260504231532 | 16 | 324 | 14.5 | 22.5 | 0.00 | 0.00 | 0.00 | 35 | 1020.5 |
| 20260504230030 | 15 | 319 | 14.5 | 25.7 | 0.00 | 0.00 | 0.00 | 37 | 1020.4 |
| 20260504224535 | 15 | 276 | 16.1 | 27.4 | 0.00 | 0.00 | 0.00 | 37 | 1019.9 |
| 20260504223032 | 15 | 308 | 14.5 | 25.7 | 0.00 | 0.00 | 0.00 | 41 | 1020.1 |
| 20260504221530 | 14 | 288 | 12.9 | 22.5 | 0.00 | 0.00 | 0.00 | 41 | 1020.1 |
| 20260504220030 | 14 | 300 | 14.5 | 27.4 | 0.00 | 0.00 | 0.00 | 43 | 1019.7 |
| 20260504214539 | 13 | 297 | 11.3 | 24.1 | 0.00 | 0.00 | 0.00 | 43 | 1019.6 |
| 20260504213030 | 13 | 283 | 14.5 | 27.4 | 0.00 | 0.00 | 0.00 | 43 | 1019.3 |
| 20260504211530 | 13 | 262 | 11.3 | 25.7 | 0.00 | 0.00 | 0.00 | 44 | 1018.8 |
| 20260504210030 | 13 | 283 | 9.7 | 19.3 | 0.00 | 0.00 | 0.00 | 46 | 1018.8 |
| 20260504204530 | 12 | 259 | 6.4 | 12.9 | 0.00 | 0.25 | 0.00 | 48 | 1018.6 |
| 20260504203030 | 12 | 274 | 6.4 | 19.3 | 0.00 | 0.25 | 0.00 | 49 | 1018.2 |
| 20260504201529 | 12 | 290 | 9.7 | 20.9 | 0.00 | 0.25 | 0.00 | 49 | 1017.9 |
| 20260504200035 | 12 | 326 | 11.3 | 24.1 | 0.00 | 0.25 | 0.00 | 50 | 1017.6 |
| 20260504194531 | 12 | 330 | 11.3 | 20.9 | 0.00 | 0.56 | 0.00 | 51 | 1017.4 |
| 20260504193030 | 12 | 291 | 12.9 | 20.9 | 0.00 | 0.56 | 0.00 | 51 | 1017.1 |
| 20260504191533 | 11 | 326 | 9.7 | 20.9 | 0.00 | 0.56 | 0.00 | 52 | 1016.9 |
| 20260504190032 | 11 | 313 | 6.4 | 20.9 | 0.00 | 0.56 | 0.00 | 53 | 1016.7 |
| 20260504184536 | 11 | 281 | 8.0 | 24.1 | 0.00 | 0.56 | 0.00 | 53 | 1016.4 |
| 20260504183036 | 11 | 13 | 11.3 | 30.6 | 0.00 | 0.56 | 0.00 | 53 | 1016.0 |
| 20260504181532 | 11 | 340 | 19.3 | 38.6 | 0.00 | 0.56 | 0.00 | 54 | 1015.4 |
| 20260504180030 | 12 | 309 | 19.3 | 51.5 | 0.00 | 0.56 | 0.00 | 53 | 1014.9 |
| 20260504174532 | 12 | 309 | 12.9 | 43.5 | 0.00 | 0.56 | 0.00 | 53 | 1014.2 |
| 20260504173029 | 12 | 337 | 16.1 | 40.2 | 0.00 | 0.56 | 0.00 | 52 | 1014.0 |
| 20260504171530 | 12 | 336 | 16.1 | 37.0 | 0.00 | 0.56 | 0.00 | 51 | 1013.7 |